Showing default

MOLNIYA 2-10, 7376

Orbit data source: Space-Track

MOLNIYA 2-10, 7376 is a payload satellite owned by GUKOS RVSN (CIS) in HEO that was launched on Tue, 23 Jul 1974 UTC via an MOLNIYA 8K78M launch vehicle from the Plesetsk Missile And Space Complex (PKMTR). Payload-class satellites include a variety of spacecraft equipped with specific instruments for various scientific and technological missions. These include communications satellites like Starlink; space stations such as the ISS; scientific satellites like the Hubble; Earth observation satellites from companies like Planet Labs, Umbra, and HawkEye 360; GPS; miniature CubeSats for education and research; and military/defense satellites.

Loading next visibility...
Identifier
7376, 1974-056A
Orbit
HEO
Last TLE update
20 hours ago
Origin
Manufacturer
OKB-10
Mission
Defense Communications
Bus & Motor
MOLNIYA-2, Unknown motor
Mass
~1,650 kg wet, ~1,620 kg dry
Launch date (UTC)
1974-07-23 (51 years ago)
Launch vehicle
MOLNIYA 8K78M
Launch site
Plesetsk Missile And Space Complex (PKMTR)
Object type
Payload
Rocket body
Debris
Shape & HBR
Cyl + 6 Pan, 8.2 m
Radar Cross Section
15.101 m², Large (>1 m²)

Expand to show TLE details & history

TLE from 20 hours ago
0 MOLNIYA 2-10
1  7376U 74056A   25109.06283650 -.00001226  00000-0  00000+0 0  9993
2  7376  65.3725 344.1257 6825713 275.1085  16.4777  2.01124535371230
Epoch: 2025-04-19T01:30Z
Definitive object data (Epoch: 2025-04-19T01:30:29.073Z)
Latitude
-0.00028°
Longitude
114.14953°
Altitude
7,007.114 km
Speed
6.673 km/s
True Right ascension
22h 56m 43s
True Declination
0° 00' 01"
Sunlit
Object was in daylight at TLE epoch
Visualization TLE readout
Latitude
50.79507°
Longitude
-100.10331°
Altitude
30,008.121 km
Speed
2.623 km/s
Apparent Right ascension
09h 26m 09s
Apparent Declination
49° 01' 03"
Sunlit
Object is in daylight
Visualization observer readout
Local Sidereal Time
04:42:21
Azimuth
54.533° ENE
Elevation
40.436°
Doppler factor
1
Orbital elements
Apogee altitude
38,226.723 km
Perigee altitude
2,036.878 km
Semi-major axis
26,509.938 km
Eccentricity
0.6825713
Inclination
65.3725°
RAAN
344.1257°
Arg. of periapsis
275.1085°
True anomaly
84.84383°
Mean anomaly
16.4777°
Eccentric anomaly
43.298°
Mean motion
0.50284 °/min
BSTAR
Unknown
Orbital period
715.93 mins
Loading maneuver chart data...
Loading SW <> Apogee altitude chart data...
Loading historical data...
Loading historical data...
Loading historical data...
Loading historical data...
Loading historical data...
Loading historical data...
Loading historical data...
Other satellites on launch #56 in the year 1974 (1974-07-23 UTC)

MOLNIYA 2-10 Visibility forecast

Observer location: undefined°, undefined°

Span
Click to sort rows by Start time (UTC) header in descending order
Start Az.
Max El. time (UTC)
Max El. Az.
Max El.
End time (UTC)
End Az.
128 mins2025-04-19 21:49:51.196Z54.553° ENE2025-04-19 21:49:51.196Z54.553° ENE32.968°2025-04-19 23:57:51.196Z104.641° ESE
279 mins2025-04-20 04:23:51.196Z336.5° NNW2025-04-20 06:46:51.196Z335.979° NNW16.34°2025-04-20 09:02:51.196Z328.779° NNW
508 mins2025-04-20 13:21:51.196Z122.353° SE2025-04-20 15:23:51.196Z48.551° ENE36.053°2025-04-20 21:49:51.196Z56.244° ENE
|